Location: Unspecified
(29.9680°N, 0.0000°E)
Time: 21:19:25
(UTC+00:00)

A-11 Canister half - Pass Details

Date: 24 June 2019
Orbit: 1526 x 1683 km, 47.3° (Epoch: 17 July)

Event Time Altitude Azimuth Distance (km) Brightness Sun altitude
Rises 06:09:03 0° 284° (WNW) 4,729 11.1 12.8°
Reaches altitude 10° 06:12:49 10° 296° (WNW) 3,726 10.7 13.6°
Maximum altitude 06:20:30 27° 352° (N) 2,590 10.5 15.1°
Drops below altitude 10° 06:28:08 10° 48° (NE) 3,693 12.4 16.7°
Sets 06:31:51 0° 60° (ENE) 4,680 13.1 17.5°
